• în Republica Moldova
  • Lista ţărilor
  • Pe 7 zile
  • Temperatura apei
  • Hartă satelitară
  • Meteo pe hartă
  • Widget-uri
  • user-avatar
    Intrare

    Meteo pe oră la Newcastle

    Astăzi, 22 Februarie, Vineri

    Timp Temperatura Precipitaţii Vânt Presiune Umiditate
    00:00 +21°C° 0.4 mm 4 m/s 762 mmHg 94%
    01:00 +21°C° 0.4 mm 5 m/s 762 mmHg 94%
    02:00 +20°C° 0.4 mm 5 m/s 762 mmHg 95%
    03:00 +20°C° 0.4 mm 5 m/s 762 mmHg 95%
    04:00 +20°C° 0 mm 4 m/s 762 mmHg 95%
    05:00 +20°C° 0.3 mm 5 m/s 762 mmHg 94%
    06:00 +20°C° 0.3 mm 5 m/s 762 mmHg 93%
    07:00 +21°C° 0.3 mm 6 m/s 763 mmHg 91%
    08:00 +22°C° 0.2 mm 6 m/s 763 mmHg 81%
    09:00 +23°C° 0.2 mm 7 m/s 763 mmHg 71%
    10:00 +26°C° 0.2 mm 7 m/s 763 mmHg 60%
    11:00 +26°C° 0.1 mm 7 m/s 763 mmHg 59%
    12:00 +26°C° 0.1 mm 7 m/s 763 mmHg 57%
    13:00 +26°C° 0.1 mm 7 m/s 763 mmHg 55%
    14:00 +24°C° 0.1 mm 7 m/s 763 mmHg 59%
    15:00 +24°C° 0.1 mm 7 m/s 763 mmHg 63%
    16:00 +23°C° 0.1 mm 7 m/s 763 mmHg 67%
    17:00 +22°C° 0.1 mm 7 m/s 763 mmHg 71%
    18:00 +21°C° 0.1 mm 6 m/s 763 mmHg 74%
    19:00 +20°C° 0.1 mm 6 m/s 764 mmHg 77%
    20:00 +20°C° 0.1 mm 6 m/s 764 mmHg 78%
    21:00 +20°C° 0.1 mm 6 m/s 764 mmHg 79%
    22:00 +20°C° 0.1 mm 6 m/s 764 mmHg 80%
    23:00 +20°C° 0.1 mm 6 m/s 764 mmHg 81%

    Mâine, 23 Februarie, Sâmbătă

    Timp Temperatura Precipitaţii Vânt Presiune Umiditate
    00:00 +20°C° 0.1 mm 6 m/s 764 mmHg 81%
    01:00 +20°C° 0.1 mm 6 m/s 763 mmHg 82%
    02:00 +20°C° 0.1 mm 6 m/s 763 mmHg 82%
    03:00 +19°C° 0.1 mm 6 m/s 763 mmHg 82%
    04:00 +19°C° 0.1 mm 6 m/s 763 mmHg 83%
    05:00 +20°C° 0.1 mm 6 m/s 763 mmHg 81%
    06:00 +20°C° 0.1 mm 6 m/s 764 mmHg 80%
    07:00 +20°C° 0.1 mm 6 m/s 764 mmHg 78%
    08:00 +22°C° 0.1 mm 7 m/s 764 mmHg 72%
    09:00 +23°C° 0.1 mm 7 m/s 764 mmHg 66%
    10:00 +24°C° 0.1 mm 7 m/s 765 mmHg 60%
    11:00 +24°C° 0.2 mm 7 m/s 765 mmHg 59%
    12:00 +26°C° 0.2 mm 7 m/s 765 mmHg 58%
    13:00 +26°C° 0.2 mm 7 m/s 765 mmHg 57%
    14:00 +24°C° 0.2 mm 7 m/s 765 mmHg 61%
    15:00 +24°C° 0.2 mm 7 m/s 765 mmHg 64%
    16:00 +23°C° 0.2 mm 7 m/s 765 mmHg 67%
    17:00 +22°C° 0.1 mm 7 m/s 765 mmHg 69%
    18:00 +22°C° 0.1 mm 7 m/s 765 mmHg 72%
    19:00 +21°C° 0.1 mm 7 m/s 765 mmHg 74%
    20:00 +21°C° 0.1 mm 6 m/s 766 mmHg 75%
    21:00 +21°C° 0.1 mm 6 m/s 766 mmHg 75%
    22:00 +20°C° 0.1 mm 6 m/s 766 mmHg 76%
    23:00 +21°C° 0.2 mm 7 m/s 766 mmHg 77%

    Poimâine, 24 Februarie, Duminică

    Timp Temperatura Precipitaţii Vânt Presiune Umiditate
    00:00 +21°C° 0.2 mm 7 m/s 766 mmHg 78%
    01:00 +21°C° 0.2 mm 7 m/s 766 mmHg 79%
    02:00 +20°C° 0 mm 7 m/s 766 mmHg 78%
    03:00 +20°C° 0 mm 7 m/s 766 mmHg 78%
    04:00 +18°C° 0 mm 7 m/s 766 mmHg 77%
    05:00 +18°C° 0.1 mm 7 m/s 766 mmHg 77%
    06:00 +20°C° 0.1 mm 7 m/s 767 mmHg 76%
    07:00 +20°C° 0.1 mm 6 m/s 767 mmHg 76%
    08:00 +20°C° 0.1 mm 6 m/s 768 mmHg 75%
    09:00 +21°C° 0.1 mm 6 m/s 768 mmHg 73%
    10:00 +21°C° 0.1 mm 6 m/s 768 mmHg 72%
    11:00 +22°C° 0.1 mm 6 m/s 768 mmHg 69%
    12:00 +22°C° 0.1 mm 6 m/s 768 mmHg 66%
    13:00 +23°C° 0.1 mm 6 m/s 768 mmHg 63%
    14:00 +23°C° 0.1 mm 7 m/s 768 mmHg 63%
    15:00 +23°C° 0.1 mm 7 m/s 768 mmHg 62%
    16:00 +23°C° 0.1 mm 7 m/s 768 mmHg 62%
    17:00 +22°C° 0.1 mm 6 m/s 768 mmHg 67%
    18:00 +21°C° 0.1 mm 6 m/s 768 mmHg 72%
    19:00 +20°C° 0.1 mm 6 m/s 769 mmHg 78%
    20:00 +19°C° 0.1 mm 5 m/s 769 mmHg 80%
    21:00 +19°C° 0.1 mm 5 m/s 769 mmHg 81%
    22:00 +19°C° 0.1 mm 5 m/s 769 mmHg 83%
    23:00 +19°C° 0.1 mm 5 m/s 769 mmHg 84%

    25 Februarie, Luni

    Timp Temperatura Precipitaţii Vânt Presiune Umiditate
    00:00 +19°C° 0.1 mm 5 m/s 769 mmHg 84%
    01:00 +19°C° 0.1 mm 4 m/s 768 mmHg 85%
    02:00 +19°C° 0.1 mm 4 m/s 768 mmHg 85%
    03:00 +19°C° 0.1 mm 4 m/s 768 mmHg 86%
    04:00 +19°C° 0.1 mm 4 m/s 768 mmHg 86%
    05:00 +19°C° 0.1 mm 4 m/s 768 mmHg 86%
    06:00 +20°C° 0.1 mm 4 m/s 769 mmHg 86%
    07:00 +20°C° 0.1 mm 4 m/s 769 mmHg 85%
    08:00 +21°C° 0.1 mm 4 m/s 769 mmHg 81%
    09:00 +22°C° 0.1 mm 4 m/s 769 mmHg 76%
    10:00 +23°C° 0.1 mm 4 m/s 769 mmHg 72%
    11:00 +25°C° 0 mm 5 m/s 769 mmHg 64%
    12:00 +26°C° 0 mm 5 m/s 769 mmHg 56%
    13:00 +28°C° 0 mm 5 m/s 768 mmHg 48%
    14:00 +27°C° 0 mm 5 m/s 768 mmHg 51%
    15:00 +27°C° 0 mm 5 m/s 767 mmHg 54%
    16:00 +26°C° 0 mm 5 m/s 767 mmHg 57%
    17:00 +23°C° 0.2 mm 4 m/s 767 mmHg 67%
    18:00 +22°C° 0.2 mm 4 m/s 768 mmHg 77%
    19:00 +20°C° 0.2 mm 3 m/s 768 mmHg 87%
    20:00 +20°C° 0.2 mm 3 m/s 768 mmHg 89%
    21:00 +19°C° 0.2 mm 3 m/s 768 mmHg 91%
    22:00 +19°C° 0.2 mm 2 m/s 768 mmHg 93%
    23:00 +19°C° 0.1 mm 2 m/s 768 mmHg 94%

    26 Februarie, Marţi

    Timp Temperatura Precipitaţii Vânt Presiune Umiditate
    00:00 +19°C° 0.1 mm 2 m/s 767 mmHg 94%
    01:00 +18°C° 0.1 mm 2 m/s 767 mmHg 94%
    02:00 +18°C° 0.3 mm 2 m/s 767 mmHg 95%
    03:00 +18°C° 0.3 mm 2 m/s 767 mmHg 96%
    04:00 +18°C° 0.3 mm 2 m/s 766 mmHg 96%
    05:00 +20°C° 0.2 mm 1 m/s 766 mmHg 95%
    06:00 +20°C° 0.2 mm 1 m/s 767 mmHg 94%
    07:00 +21°C° 0.2 mm 1 m/s 767 mmHg 94%
    08:00 +23°C° 0.1 mm 2 m/s 767 mmHg 82%
    09:00 +25°C° 0.1 mm 2 m/s 767 mmHg 70%
    10:00 +27°C° 0.1 mm 2 m/s 767 mmHg 58%
    11:00 +28°C° 0 mm 3 m/s 766 mmHg 54%
    12:00 +29°C° 0 mm 3 m/s 766 mmHg 50%
    13:00 +29°C° 0 mm 4 m/s 765 mmHg 46%
    14:00 +29°C° 0 mm 4 m/s 765 mmHg 47%
    15:00 +29°C° 0 mm 4 m/s 764 mmHg 48%
    16:00 +28°C° 0 mm 4 m/s 764 mmHg 48%
    17:00 +27°C° 0 mm 4 m/s 764 mmHg 56%
    18:00 +25°C° 0 mm 4 m/s 764 mmHg 64%
    19:00 +22°C° 0 mm 4 m/s 764 mmHg 72%
    20:00 +22°C° 0 mm 4 m/s 765 mmHg 75%
    21:00 +21°C° 0 mm 4 m/s 765 mmHg 78%
    22:00 +21°C° 0 mm 4 m/s 765 mmHg 81%
    23:00 +20°C° 0 mm 3 m/s 765 mmHg 84%

    27 Februarie, Miercuri

    Timp Temperatura Precipitaţii Vânt Presiune Umiditate
    00:00 +20°C° 0 mm 3 m/s 764 mmHg 88%
    01:00 +19°C° 0 mm 3 m/s 764 mmHg 92%
    02:00 +19°C° 0 mm 2 m/s 764 mmHg 93%
    03:00 +18°C° 0 mm 2 m/s 764 mmHg 94%
    04:00 +19°C° 0 mm 1 m/s 764 mmHg 95%
    05:00 +20°C° 0 mm 1 m/s 764 mmHg 92%
    06:00 +20°C° 0 mm 1 m/s 764 mmHg 89%
    07:00 +21°C° 0 mm 1 m/s 765 mmHg 86%
    08:00 +24°C° 0 mm 1 m/s 765 mmHg 74%
    09:00 +26°C° 0 mm 1 m/s 765 mmHg 62%
    10:00 +29°C° 0 mm 1 m/s 765 mmHg 51%
    11:00 +29°C° 0 mm 2 m/s 765 mmHg 50%
    12:00 +30°C° 0 mm 3 m/s 765 mmHg 49%
    13:00 +30°C° 0 mm 4 m/s 764 mmHg 48%
    14:00 +30°C° 0 mm 4 m/s 764 mmHg 50%
    15:00 +29°C° 0 mm 4 m/s 764 mmHg 52%
    16:00 +29°C° 0 mm 4 m/s 764 mmHg 54%
    17:00 +27°C° 0 mm 4 m/s 765 mmHg 61%
    18:00 +25°C° 0 mm 4 m/s 765 mmHg 69%
    19:00 +24°C° 0 mm 3 m/s 766 mmHg 76%
    20:00 +22°C° 0 mm 3 m/s 766 mmHg 80%
    21:00 +21°C° 0 mm 3 m/s 767 mmHg 85%
    22:00 +21°C° 0 mm 3 m/s 767 mmHg 89%
    23:00 +20°C° 0 mm 2 m/s 767 mmHg 90%
    Arată mai mult